Simultaneous Nadir Overpasses (SNOs) Predictions

Prediction of SNOs between GOES-16 and LANDSAT-8 Satellite Orbit:

Table of predicted SNOs for the next 14.0 days since TLE Epoch: 9/5/2025
Index Date Time (GOES-16) GOES-16 Lat,Lon LANDSAT-8 Lat,Lon Distance(km) Time Diff (sec)
1 09/06/2025 05:07:08 -0.07,-104.65 0.03,-104.01 71.47 80
2 09/08/2025 04:54:58 -0.07,-104.64 0.68,-101.06 407.43 80
3 09/08/2025 17:18:53 0.08,-104.69 0.39,-106.22 174.04 80
4 09/10/2025 17:04:01 0.07,-104.68 -0.21,-103.25 162.16 80
5 09/11/2025 05:28:05 -0.08,-104.64 -0.89,-108.44 432.28 80
6 09/12/2025 16:51:49 0.08,-104.68 -0.84,-100.29 498.15 80
7 09/13/2025 05:15:53 -0.09,-104.63 -0.26,-105.48 96.41 80
8 09/15/2025 05:01:01 -0.09,-104.62 0.38,-102.52 239.37 80
9 09/15/2025 17:24:56 0.10,-104.66 0.73,-107.67 342.66 80
10 09/17/2025 17:12:43 0.11,-104.65 0.12,-104.71 6.38 80
11 09/19/2025 16:57:50 0.10,-104.65 -0.51,-101.74 330.52 80
